GW2364 Weather Reports


Display with metric or nautical units.
time (UTC)temp
F
wind
direction
speed
MPH
gust
MPH
rain 1hr
in
rain 24hr
in
rain mn
in
humidity
%
barometer
mb
20260906081503 80 242 1.0 4.0 0.00 0.00 0.00 78 1009.9
20260906080006 81 233 0.0 4.0 0.00 0.00 0.00 78 1010.1
20260906074504 81 222 0.0 3.0 0.00 0.00 0.00 77 1010.3
20260906073003 82 207 1.0 4.0 0.00 0.00 0.00 76 1010.4
20260906071503 82 223 1.0 4.0 0.00 0.00 0.00 76 1010.5
20260906070005 82 261 2.0 5.0 0.00 0.00 0.00 75 1010.7
20260906064503 82 197 1.0 4.0 0.00 0.00 0.00 75 1010.8
20260906063004 83 224 1.0 5.0 0.00 0.00 0.00 74 1010.9
20260906061504 83 309 0.0 4.0 0.00 0.00 0.00 74 1011.1
20260906060010 83 225 1.0 3.0 0.00 0.00 0.00 73 1011.2
20260906054505 83 130 1.0 6.0 0.00 0.00 0.00 73 1011.1
20260906053006 84 332 0.0 4.0 0.00 0.00 0.00 72 1010.8
20260906051506 84 67 0.0 4.0 0.00 0.00 0.00 71 1010.9
20260906050011 84 355 0.0 3.0 0.00 0.00 0.00 71 1011.0
20260906044506 85 87 0.0 5.0 0.00 0.00 0.00 70 1011.0
20260906043008 85 128 0.0 8.0 0.00 0.00 0.00 70 1011.0
20260906041507 85 86 1.0 7.0 0.00 0.00 0.00 69 1011.0
20260906040009 86 109 3.0 9.0 0.00 0.00 0.00 68 1010.9
20260906034509 86 43 1.0 8.0 0.00 0.00 0.00 66 1010.9
20260906033006 87 176 4.0 8.0 0.00 0.00 0.00 65 1010.9
20260906031506 87 76 2.0 7.0 0.00 0.00 0.00 62 1010.7
20260906030008 87 103 4.0 9.0 0.00 0.00 0.00 61 1010.4
20260906024505 88 71 2.0 8.0 0.00 0.00 0.00 60 1010.0
20260906023015 88 50 2.0 9.0 0.00 0.00 0.00 59 1009.5
20260906021506 89 58 2.0 6.0 0.00 0.00 0.00 59 1009.2
20260906020007 89 95 2.0 5.0 0.00 0.00 0.00 58 1008.9
20260906014505 89 59 2.0 9.0 0.00 0.00 0.00 56 1008.9
20260906013005 90 46 2.0 5.0 0.00 0.00 0.00 54 1008.8
20260906011505 91 119 2.0 8.0 0.00 0.00 0.00 53 1008.8
20260906010007 92 56 3.0 8.0 0.00 0.00 0.00 50 1008.7
20260906004509 93 70 3.0 9.0 0.00 0.00 0.00 47 1008.5
20260906003005 94 44 3.0 10.0 0.00 0.00 0.00 45 1008.4
20260906001505 95 83 4.0 9.0 0.00 0.00 0.00 43 1008.4
20260906000007 96 46 2.0 5.0 0.00 0.00 0.00 42 1008.3
20260905234505 97 74 2.0 5.0 0.00 0.00 0.00 41 1008.3
20260905233013 98 105 1.0 6.0 0.00 0.00 0.00 40 1008.2
20260905231505 98 56 3.0 6.0 0.00 0.00 0.00 39 1008.2
20260905230008 99 138 2.0 7.0 0.00 0.00 0.00 37 1008.3
20260905224505 98 234 1.0 5.0 0.00 0.00 0.00 37 1008.2
20260905223006 99 44 2.0 4.0 0.00 0.00 0.00 37 1008.3
20260905221507 99 63 1.0 8.0 0.00 0.00 0.00 37 1008.5
20260905220008 99 82 1.0 7.0 0.00 0.00 0.00 37 1008.6
20260905214505 98 33 1.0 6.0 0.00 0.00 0.00 39 1008.6
20260905213006 99 59 3.0 9.0 0.00 0.00 0.00 38 1008.6
20260905211515 99 25 2.0 7.0 0.00 0.00 0.00 38 1008.7
20260905210009 99 95 2.0 8.0 0.00 0.00 0.00 38 1008.8
20260905204505 98 61 3.0 8.0 0.00 0.00 0.00 38 1009.2
20260905203005 99 49 4.0 8.0 0.00 0.00 0.00 39 1009.5
20260905201505 99 236 1.0 6.0 0.00 0.00 0.00 39 1009.7
20260905200012 98 90 2.0 9.0 0.00 0.00 0.00 40 1009.8
20260905194505 97 36 3.0 10.0 0.00 0.00 0.00 41 1010.1
20260905193005 98 80 2.0 6.0 0.00 0.00 0.00 42 1010.4
20260905191505 98 92 4.0 7.0 0.00 0.00 0.00 40 1010.6
20260905190007 98 228 0.0 9.0 0.00 0.00 0.00 42 1010.8
20260905184513 97 200 2.0 12.0 0.00 0.00 0.00 39 1011.0
20260905183005 96 345 3.0 9.0 0.00 0.00 0.00 44 1011.3
20260905181505 95 120 2.0 7.0 0.00 0.00 0.00 45 1011.5
20260905180007 95 111 2.0 6.0 0.00 0.00 0.00 48 1012.1
20260905174505 95 82 2.0 8.0 0.00 0.00 0.00 48 1012.4
20260905173006 93 69 0.0 5.0 0.00 0.00 0.00 52 1012.5
20260905171504 93 244 2.0 9.0 0.00 0.00 0.00 53 1012.6
20260905170006 92 216 2.0 7.0 0.00 0.00 0.00 57 1012.7
20260905164513 91 225 5.0 10.0 0.00 0.00 0.00 56 1012.8
20260905163005 90 268 1.0 8.0 0.00 0.00 0.00 61 1012.8
20260905161507 89 238 3.0 10.0 0.00 0.00 0.00 63 1012.9
20260905160017 88 272 3.0 9.0 0.00 0.00 0.00 65 1012.9
20260905154505 86 234 3.0 8.0 0.00 0.00 0.00 69 1012.7
20260905153004 87 115 2.0 8.0 0.00 0.00 0.00 70 1012.8
20260905151505 87 117 1.0 5.0 0.00 0.00 0.00 73 1012.9
20260905150007 85 65 1.0 6.0 0.00 0.00 0.00 77 1013.0
20260905144504 82 247 1.0 8.0 0.00 0.00 0.00 81 1012.8
20260905143006 81 249 1.0 6.0 0.00 0.00 0.00 83 1012.9
20260905141506 82 197 2.0 4.0 0.00 0.00 0.00 84 1012.8
20260905140005 81 148 0.0 4.0 0.00 0.00 0.00 87 1012.6
20260905134503 79 250 0.0 2.0 0.00 0.00 0.00 91 1012.5
20260905133004 78 250 0.0 1.0 0.00 0.00 0.00 93 1012.6
20260905131504 77 250 0.0 1.0 0.00 0.00 0.00 94 1012.4
20260905130008 76 250 0.0 1.0 0.00 0.00 0.00 95 1012.3
20260905124503 76 250 0.0 0.0 0.00 0.00 0.00 94 1011.9
20260905123003 76 250 0.0 1.0 0.00 0.00 0.00 94 1011.9
20260905121504 76 250 0.0 1.0 0.00 0.00 0.00 94 1011.8
20260905120014 76 250 0.0 1.0 0.00 0.00 0.00 94 1011.7
20260905114504 76 250 0.0 1.0 0.00 0.00 0.00 94 1011.5
20260905113004 76 250 0.0 0.0 0.00 0.00 0.00 93 1011.4
20260905111504 76 250 0.0 1.0 0.00 0.00 0.00 93 1011.5
20260905110005 76 250 0.0 0.0 0.00 0.00 0.00 93 1011.3
20260905104504 76 250 0.0 0.0 0.00 0.00 0.00 92 1011.1
20260905103006 76 250 0.0 0.0 0.00 0.00 0.00 92 1011.2
20260905101504 77 250 0.0 1.0 0.00 0.00 0.00 92 1011.2
20260905100007 77 250 0.0 1.0 0.00 0.00 0.00 92 1011.1
20260905094505 77 250 0.0 1.0 0.00 0.00 0.00 91 1011.0
20260905093003 77 250 0.0 1.0 0.00 0.00 0.00 91 1011.1
20260905091507 77 250 0.0 2.0 0.00 0.00 0.00 90 1011.1
20260905090008 77 250 0.0 1.0 0.00 0.00 0.00 89 1011.1
20260905084503 78 247 0.0 2.0 0.00 0.00 0.00 89 1011.2
20260905083009 78 247 0.0 2.0 0.00 0.00 0.00 88 1011.3